sat.trackr.live / text

‹ back to catalog

STARLINK-5436

NORAD 54795 · 2022-175AP

PAYLOAD ACTIVE UNKNOWN

§ Identity

Operator
Country
US
Launch date
2022-12-17
Launch site
AFETR
Launch vehicle
Mass (kg)
RCS (m²)

Purposes: comms

External: N2YO · Heavens-Above · Gunter

§ Orbital elements

Epoch: 2026-05-25T03:24:20.477952Z

Period
95.44 min
Inclination
53.2135°
Eccentricity
0.0001497
Mean motion
15.08846732 rev/d
Perigee alt
538.7 km
Apogee alt
540.8 km
Semi-major
6,917.9 km
B*
-1.0332e-4
RAAN
45.7393°
Arg perigee
83.4060°
Mean anomaly
276.7103°
Rev number
19,167

§ Raw data

STARLINK-54361 54795U 22175AP  26145.14190368 -.00001932  00000+0 -10332-3 0  99952 54795  53.2135  45.7393 0001497  83.4060 276.7103 15.08846732191678

JSON: /api/v1/satellites/54795 · /tle

For live sub-satellite position, see the globe view (requires WebGL).

§ Visibility from observer

Set your observer location to see the next 7 days of passes ≥ 10°. The values pass through the URL so the page stays shareable.

No JS? Fill the form by hand. The geolocation button needs JavaScript.